[[{"header":{"parameterUnit":"m.s-1","parameterCategory":2,"la1":30.2991,"la2":30.254,"lo1":-89.0895,"lo2":-89.0444,"dy":0.0017,"dx":0.0017,"nx":28,"ny":28,"refTime":"2023-06-19T21:00:00:Z","depth":"0","parameterNumber":2,"parameterNumberName":"U-component_of_CURRENTS"},"data":[0,0,0,0,0,0,0,0,0,0,0,0,0,0,0,0,0,0,0,0,0,0,0,0,0,0,0,0,0,0,0,0,0,0,0,0,0,0,0,0,0,0,0,0,0,0,0,0,0,0,0,0,0,0,0,0,0,0,-0.115,-0.1151,0,-0.1181,-0.1182,-0.1182,-0.122,-0.122,-0.1221,-0.1221,-0.1121,-0.1118,-0.1115,0,0,0,0,0,0,0,0,0,0,0,0,0,-0.1105,-0.1106,-0.115,-0.1151,-0.1151,-0.1181,-0.1182,-0.1182,-0.1219,-0.122,-0.1221,-0.1221,-0.1122,-0.1118,-0.1114,0,0,0,0,0,0,0,0,0,0,0,0,0,-0.113,-0.1106,-0.115,-0.1173,-0.1175,-0.1181,-0.1182,-0.1182,-0.1219,-0.122,-0.1221,-0.1222,-0.1123,-0.1119,-0.1114,-0.1069,0,0,-0.1099,-0.1097,0,0,0,0,0,0,0,0,-0.1129,-0.1132,-0.1169,-0.1171,-0.1174,-0.1197,-0.1129,-0.1138,-0.1219,-0.1203,-0.1221,-0.1222,-0.1133,-0.1128,-0.1134,-0.1064,-0.106,-0.1099,-0.1096,-0.1094,-0.1093,0,0,0,0,0,0,0,-0.1127,-0.1131,-0.1163,-0.1169,-0.1172,-0.1175,-0.118,-0.1131,-0.1161,-0.1205,-0.1207,-0.1209,-0.1134,-0.1139,-0.1132,-0.1058,-0.1099,-0.1095,-0.1092,-0.109,-0.0956,-0.0956,0,0,0,0,0,0,-0.1122,-0.1129,-0.1162,-0.1164,-0.1152,-0.1175,-0.118,-0.1189,-0.1165,-0.1163,-0.1209,-0.1211,-0.1147,-0.1137,-0.1128,-0.1097,-0.1094,-0.109,-0.1087,-0.0957,-0.0956,-0.0956,0,0,0,0,0,0,-0.1121,-0.1125,-0.1161,-0.1146,-0.1151,-0.1175,-0.1185,-0.1189,-0.1192,-0.1169,-0.1165,-0.1207,-0.1147,-0.1135,-0.1086,-0.1092,-0.1088,-0.1083,-0.0958,-0.0957,-0.0956,-0.1018,0,0,0,0,0,0,-0.112,-0.1125,-0.112,-0.1146,-0.1152,-0.1165,-0.1184,-0.1189,-0.1192,-0.1196,-0.1165,-0.1158,-0.1147,-0.1093,-0.1081,-0.1086,-0.108,-0.0959,-0.0957,-0.0956,-0.1017,-0.1019,-0.1021,0,0,0,0,0,-0.1118,-0.112,-0.112,-0.1123,-0.1148,-0.1164,-0.1167,-0.1187,-0.1191,-0.1193,-0.1171,-0.1159,-0.1077,-0.1088,-0.1074,-0.1078,-0.096,-0.0958,-0.0956,-0.1016,-0.1018,-0.1021,0,0,0,0,0,0,-0.1106,-0.1125,-0.1125,-0.1134,-0.1144,-0.1171,-0.1174,-0.1179,-0.1166,-0.1168,-0.1141,-0.1131,-0.1099,-0.1064,-0.1078,-0.1033,-0.1018,-0.1014,-0.1068,-0.107,-0.1072,-0.1115,-0.1076,0,0,0,0,0,-0.1097,-0.1104,-0.1118,-0.1126,-0.1128,-0.1144,-0.1149,-0.1166,-0.1162,-0.116,-0.1139,-0.1109,-0.108,-0.1056,-0.1029,-0.0987,-0.0994,-0.098,-0.0983,-0.0985,-0.1008,-0.1007,-0.1012,-0.095,-0.095,-0.095,0,0,-0.1097,-0.1107,-0.1112,-0.1123,-0.1134,-0.1155,-0.115,-0.1166,-0.1189,-0.1144,-0.1151,-0.1114,-0.1071,-0.1048,-0.1029,-0.1019,-0.1008,-0.0983,-0.0986,-0.1008,-0.1006,-0.1013,-0.1018,-0.0949,-0.0949,-0.095,0,0,-0.1113,-0.1107,-0.112,-0.1132,-0.1147,-0.1157,-0.1157,-0.1175,-0.1184,-0.1172,-0.1157,-0.1124,-0.1069,-0.106,-0.1041,-0.1026,-0.1024,-0.1004,-0.1045,-0.1043,-0.1049,-0.1055,-0.1093,-0.1101,-0.1,-0.1,-0.1001,0,-0.1104,-0.1129,-0.1125,-0.115,-0.116,-0.1158,-0.1179,-0.1194,-0.1197,-0.12,-0.118,-0.1133,-0.1087,-0.1077,-0.1076,-0.1037,-0.1045,-0.1044,-0.1051,-0.1056,-0.1061,-0.1098,-0.1106,-0.1003,-0.1003,-0.1003,-0.1002,0,-0.1142,-0.1158,-0.1168,-0.1196,-0.1206,-0.1222,-0.124,-0.125,-0.1243,-0.1253,-0.1239,-0.1188,-0.1157,-0.1135,-0.1098,-0.1104,-0.1105,-0.1062,-0.1056,-0.1072,-0.1108,-0.1117,-0.1007,-0.1006,-0.1005,-0.1005,0,0,-0.1118,-0.1178,-0.1176,-0.1196,-0.1227,-0.1237,-0.1277,-0.1296,-0.1321,-0.1311,-0.1335,-0.1279,-0.1249,-0.1225,-0.1176,-0.1172,-0.1204,-0.113,-0.1129,-0.1191,-0.1233,-0.1244,-0.1253,-0.1159,-0.116,-0.1161,-0.1255,0,-0.1135,-0.1177,-0.1208,-0.1248,-0.1264,-0.1289,-0.1322,-0.1348,-0.1356,-0.138,-0.1352,-0.134,-0.1285,-0.1256,-0.1249,-0.1216,-0.1223,-0.1185,-0.1189,-0.1191,-0.1216,-0.1262,-0.1151,-0.1225,-0.1262,-0.1264,-0.1265,0,-0.1137,-0.1172,-0.1205,-0.1262,-0.1271,-0.1301,-0.1337,-0.1368,-0.1416,-0.1426,-0.1431,-0.1411,-0.1411,-0.1344,-0.1343,-0.132,-0.1284,-0.1265,-0.1267,-0.1265,-0.1215,-0.1208,-0.1238,-0.111,-0.1277,-0.1276,-0.1275,0,-0.1084,-0.1153,-0.117,-0.1193,-0.1268,-0.1291,-0.1318,-0.137,-0.1395,-0.1449,-0.1467,-0.1482,-0.1465,-0.1451,-0.1401,-0.1371,-0.1412,-0.1358,-0.1351,-0.1352,-0.1256,-0.1247,-0.1182,-0.136,-0.1359,-0.1359,-0.1359,0,-0.1062,-0.1082,-0.1149,-0.1169,-0.12,-0.1255,-0.1291,-0.1336,-0.1398,-0.1425,-0.1465,-0.1478,-0.1482,-0.1494,-0.1457,-0.1451,-0.1453,-0.1393,-0.138,-0.1275,-0.1267,-0.1148,-0.1174,-0.1363,-0.1362,-0.1361,-0.1361,0,-0.0999,-0.104,-0.1076,-0.1156,-0.1175,-0.1188,-0.1264,-0.1298,-0.1362,-0.1403,-0.1417,-0.1484,-0.151,-0.1532,-0.1524,-0.1509,-0.1476,-0.1488,-0.1395,-0.1369,-0.1258,-0.1296,-0.1401,-0.1361,-0.153,-0.1531,-0.1532,0,-0.0981,-0.0989,-0.1046,-0.1063,-0.1101,-0.1139,-0.1171,-0.1256,-0.1293,-0.1384,-0.1395,-0.1457,-0.1456,-0.1519,-0.1539,-0.1559,-0.1483,-0.1465,-0.1381,-0.1271,-0.1301,-0.1354,-0.1315,-0.1284,-0.1283,-0.1282,-0.1281,0,-0.0957,-0.0958,-0.098,-0.1008,-0.1039,-0.1077,-0.1127,-0.1153,-0.1243,-0.1282,-0.1318,-0.1326,-0.1411,-0.1396,-0.1467,-0.1451,-0.142,-0.1445,-0.1324,-0.1128,-0.1188,-0.1133,-0.1237,-0.1271,-0.1272,-0.1273,-0.1273,-0.1274,-0.0929,-0.0916,-0.0926,-0.0945,-0.098,-0.1002,-0.0994,-0.1051,-0.1079,-0.1089,-0.118,-0.1165,-0.1196,-0.1285,-0.1263,-0.1209,-0.1372,-0.1141,-0.1209,-0.1281,-0.1205,-0.1331,-0.1346,-0.1348,-0.1349,-0.135,-0.1351,0,-0.0896,-0.0871,-0.0877,-0.0888,-0.0896,-0.0932,-0.0955,-0.0924,-0.0907,-0.0936,-0.0934,-0.0962,-0.0916,-0.0929,-0.0966,-0.0941,-0.0912,-0.0925,-0.0897,-0.0875,-0.0932,-0.0868,-0.0786,-0.0786,-0.0787,-0.0787,-0.0787,-0.0787,-0.0875,-0.0837,-0.0821,-0.0799,-0.0808,-0.0773,-0.0757,-0.0708,-0.0703,-0.0661,-0.0677,-0.0696,-0.0732,-0.0855,-0.0735,-0.0689,-0.0648,-0.0741,-0.0773,-0.069,-0.0711,-0.073,-0.0664,-0.0541,-0.0541,-0.0588,-0.0589,-0.0589]},{"header":{"parameterUnit":"m.s-1","parameterCategory":2,"la1":30.2991,"la2":30.254,"lo1":-89.0895,"lo2":-89.0444,"dy":0.0017,"dx":0.0017,"nx":28,"ny":28,"refTime":"2023-06-19T21:00:00:Z","depth":"0","parameterNumber":3,"parameterNumberName":"V-component_of_CURRENTS"},"data":[0,0,0,0,0,0,0,0,0,0,0,0,0,0,0,0,0,0,0,0,0,0,0,0,0,0,0,0,0,0,0,0,0,0,0,0,0,0,0,0,0,0,0,0,0,0,0,0,0,0,0,0,0,0,0,0,0,0,-0.0606,-0.0606,0,-0.0534,-0.0533,-0.0531,-0.0497,-0.0497,-0.0498,-0.0498,-0.0341,-0.0336,-0.0331,0,0,0,0,0,0,0,0,0,0,0,0,0,-0.0629,-0.0629,-0.0606,-0.0606,-0.0605,-0.0534,-0.0533,-0.0531,-0.0497,-0.0497,-0.0498,-0.0499,-0.0342,-0.0337,-0.0331,0,0,0,0,0,0,0,0,0,0,0,0,0,-0.059,-0.0629,-0.0606,-0.0583,-0.0581,-0.0534,-0.0532,-0.0531,-0.0497,-0.0497,-0.0498,-0.0499,-0.0344,-0.0337,-0.033,-0.0272,0,0,-0.0309,-0.0306,0,0,0,0,0,0,0,0,-0.0592,-0.0588,-0.0587,-0.0585,-0.0582,-0.053,-0.0483,-0.0442,-0.0497,-0.0523,-0.0498,-0.0499,-0.0399,-0.0387,-0.0366,-0.0264,-0.0258,-0.0308,-0.0304,-0.0301,-0.0299,0,0,0,0,0,0,0,-0.0595,-0.0591,-0.0572,-0.0587,-0.0584,-0.0548,-0.0543,-0.0475,-0.0452,-0.0521,-0.052,-0.052,-0.0396,-0.0373,-0.0362,-0.0255,-0.0308,-0.0302,-0.0298,-0.0295,-0.0136,-0.0136,0,0,0,0,0,0,-0.0618,-0.0594,-0.0574,-0.057,-0.0595,-0.0548,-0.0542,-0.0542,-0.0454,-0.0444,-0.0519,-0.0518,-0.0384,-0.037,-0.0356,-0.0325,-0.0301,-0.0294,-0.029,-0.0136,-0.0136,-0.0136,0,0,0,0,0,0,-0.0619,-0.0617,-0.0577,-0.0585,-0.0578,-0.0548,-0.0546,-0.054,-0.0523,-0.0455,-0.0442,-0.0511,-0.0384,-0.0366,-0.0314,-0.0317,-0.0291,-0.0285,-0.0136,-0.0136,-0.0136,-0.0234,0,0,0,0,0,0,-0.062,-0.0617,-0.0616,-0.0586,-0.0579,-0.056,-0.0546,-0.0538,-0.0524,-0.0522,-0.0443,-0.0429,-0.0384,-0.0325,-0.0307,-0.0306,-0.0279,-0.0136,-0.0136,-0.0136,-0.023,-0.0237,-0.0242,0,0,0,0,0,-0.0621,-0.0617,-0.0616,-0.0614,-0.058,-0.056,-0.0552,-0.0529,-0.0523,-0.0516,-0.0473,-0.0432,-0.0312,-0.0319,-0.0298,-0.0296,-0.0136,-0.0136,-0.0136,-0.0228,-0.0236,-0.0242,0,0,0,0,0,0,-0.062,-0.0613,-0.0611,-0.0604,-0.0591,-0.0557,-0.0546,-0.0532,-0.0491,-0.0489,-0.0426,-0.0408,-0.0362,-0.0313,-0.0322,-0.0249,-0.0218,-0.0214,-0.0295,-0.0302,-0.0308,-0.0311,-0.0274,0,0,0,0,0,-0.0623,-0.0621,-0.061,-0.0603,-0.0601,-0.0574,-0.0561,-0.055,-0.0516,-0.0499,-0.0445,-0.0389,-0.0341,-0.0313,-0.0254,-0.0209,-0.0189,-0.0195,-0.0201,-0.0207,-0.0195,-0.0182,-0.0187,-0.0135,-0.0135,-0.0135,0,0,-0.0622,-0.0617,-0.0616,-0.0603,-0.0589,-0.0584,-0.0567,-0.0555,-0.0551,-0.0485,-0.045,-0.04,-0.0333,-0.0293,-0.0267,-0.0255,-0.0217,-0.0206,-0.0212,-0.0197,-0.0183,-0.0188,-0.0192,-0.0135,-0.0135,-0.0135,0,0,-0.0619,-0.0617,-0.0616,-0.0608,-0.0599,-0.0589,-0.0592,-0.0563,-0.0553,-0.0522,-0.0477,-0.0436,-0.0354,-0.0314,-0.0284,-0.0282,-0.0247,-0.0262,-0.0297,-0.0286,-0.029,-0.0294,-0.0312,-0.0316,-0.027,-0.027,-0.027,0,-0.0619,-0.0618,-0.0611,-0.0607,-0.0607,-0.0597,-0.06,-0.0586,-0.0542,-0.0534,-0.0525,-0.0421,-0.0367,-0.0324,-0.0328,-0.0296,-0.0294,-0.0282,-0.0297,-0.0299,-0.0301,-0.0318,-0.0322,-0.0275,-0.0274,-0.0274,-0.0273,0,-0.0622,-0.0616,-0.0615,-0.0616,-0.0612,-0.0613,-0.0609,-0.0601,-0.0595,-0.0576,-0.0538,-0.0474,-0.0416,-0.0397,-0.0361,-0.0341,-0.0338,-0.0308,-0.0287,-0.0313,-0.0329,-0.0331,-0.0281,-0.028,-0.0278,-0.0277,0,0,-0.0642,-0.0624,-0.0624,-0.0628,-0.0623,-0.0626,-0.0628,-0.0628,-0.0635,-0.0597,-0.06,-0.052,-0.0489,-0.0451,-0.0402,-0.0388,-0.0415,-0.0359,-0.0356,-0.0393,-0.0417,-0.049,-0.0499,-0.0395,-0.0394,-0.0394,-0.0438,0,-0.0652,-0.0649,-0.0639,-0.0647,-0.0653,-0.065,-0.0658,-0.0655,-0.0648,-0.0645,-0.0602,-0.0571,-0.0511,-0.0492,-0.047,-0.0411,-0.0418,-0.0407,-0.037,-0.0369,-0.0444,-0.0502,-0.0381,-0.0415,-0.044,-0.044,-0.044,0,-0.0669,-0.0665,-0.0671,-0.0677,-0.0683,-0.0689,-0.0714,-0.0714,-0.0707,-0.0699,-0.0665,-0.0631,-0.0587,-0.0551,-0.0484,-0.0482,-0.0458,-0.0427,-0.0428,-0.0455,-0.0445,-0.0382,-0.0418,-0.0122,-0.0443,-0.0442,-0.0442,0,-0.0703,-0.0695,-0.0706,-0.0706,-0.0707,-0.0721,-0.0731,-0.073,-0.0743,-0.0729,-0.0741,-0.0678,-0.0664,-0.0605,-0.0551,-0.0513,-0.0515,-0.0454,-0.0506,-0.0511,-0.0378,-0.0373,-0.0129,-0.0437,-0.0437,-0.0436,-0.0436,0,-0.0726,-0.0733,-0.0724,-0.0731,-0.0765,-0.0753,-0.079,-0.0785,-0.0793,-0.0817,-0.0766,-0.0783,-0.0677,-0.067,-0.0599,-0.0583,-0.0556,-0.0527,-0.0529,-0.0414,-0.0412,-0.0124,-0.0018,-0.0438,-0.0438,-0.0437,-0.0437,0,-0.0752,-0.0743,-0.0756,-0.0765,-0.0778,-0.0801,-0.0837,-0.0861,-0.0854,-0.0889,-0.089,-0.0868,-0.0874,-0.0815,-0.0747,-0.0665,-0.0501,-0.0638,-0.0538,-0.0529,-0.0286,-0.0194,-0.0109,0.0008,-0.0673,-0.0675,-0.0677,0,-0.076,-0.0769,-0.0789,-0.0809,-0.0814,-0.085,-0.0885,-0.0892,-0.092,-0.0947,-0.0978,-0.1008,-0.1057,-0.1017,-0.0896,-0.0837,-0.0617,-0.0649,-0.0547,-0.0273,-0.0169,-0.0142,-0.0044,-0.0409,-0.0409,-0.0408,-0.0408,0,-0.0779,-0.0787,-0.0798,-0.0842,-0.0879,-0.0922,-0.097,-0.1008,-0.1024,-0.1068,-0.1134,-0.1182,-0.1178,-0.1091,-0.1022,-0.0903,-0.0428,-0.0644,-0.0338,0.0057,0.0089,0.0201,-0.0402,-0.0404,-0.0404,-0.0404,-0.0404,-0.0405,-0.0796,-0.0813,-0.0834,-0.0879,-0.0915,-0.0976,-0.1027,-0.1091,-0.1161,-0.1247,-0.1278,-0.1381,-0.1157,-0.1071,-0.0923,-0.04,-0.05,-0.0151,-0.0069,-0.0072,0.0072,-0.0577,-0.0602,-0.0604,-0.0605,-0.0606,-0.0607,0,-0.0822,-0.0841,-0.0876,-0.0926,-0.0971,-0.0983,-0.107,-0.1131,-0.1233,-0.1364,-0.146,-0.1355,-0.1064,-0.0732,-0.0095,0.0221,0.034,0.043,0.0636,0.0703,0.0194,0.0248,0.0383,0.0382,0.0382,0.0382,0.0381,0.0381,-0.0839,-0.0875,-0.0894,-0.0964,-0.0993,-0.1074,-0.1122,-0.1213,-0.1324,-0.1431,-0.1472,-0.1532,-0.0822,0.0176,0.0919,0.0998,0.1289,0.1193,0.1286,0.1127,0.1086,0.1046,0.1133,0.145,0.1451,0.1861,0.1866,0.1869]}],[{"header":{"parameterUnit":"m.s-1","parameterCategory":2,"la1":30.2991,"la2":30.254,"lo1":-89.0895,"lo2":-89.0444,"dy":0.0017,"dx":0.0017,"nx":28,"ny":28,"refTime":"2023-06-19T21:00:00:Z","depth":"2","parameterNumber":2,"parameterNumberName":"U-component_of_CURRENTS"},"data":[0,0,0,0,0,0,0,0,0,0,0,0,0,0,0,0,0,0,0,0,0,0,0,0,0,0,0,0,0,0,0,0,0,0,0,0,0,0,0,0,0,0,0,0,0,0,0,0,0,0,0,0,0,0,0,0,0,0,-0.2666,-0.2666,0,-0.2665,-0.2665,-0.2665,-0.2612,-0.2611,-0.2609,-0.2608,-0.2535,-0.2535,-0.2534,0,0,0,0,0,0,0,0,0,0,0,0,0,-0.2708,-0.2707,-0.2666,-0.2666,-0.2667,-0.2665,-0.2665,-0.2665,-0.2612,-0.2611,-0.2609,-0.2608,-0.2536,-0.2535,-0.2534,0,0,0,0,0,0,0,0,0,0,0,0,0,-0.2695,-0.2707,-0.2666,-0.2642,-0.264,-0.2665,-0.2665,-0.2665,-0.2612,-0.2611,-0.2609,-0.2607,-0.2536,-0.2535,-0.2534,-0.2562,0,0,-0.253,-0.2529,0,0,0,0,0,0,0,0,-0.2696,-0.2693,-0.2645,-0.2643,-0.2641,-0.2639,-0.2653,-0.2627,-0.2613,-0.262,-0.2608,-0.2606,-0.2566,-0.2562,-0.2564,-0.2558,-0.2555,-0.253,-0.2529,-0.2528,-0.2528,0,0,0,0,0,0,0,-0.2696,-0.2693,-0.2664,-0.2645,-0.2643,-0.266,-0.2655,-0.2649,-0.26,-0.262,-0.2616,-0.262,-0.2564,-0.2565,-0.2562,-0.2554,-0.253,-0.2529,-0.2528,-0.2527,-0.2544,-0.2545,0,0,0,0,0,0,-0.2698,-0.2694,-0.2664,-0.2664,-0.2667,-0.2661,-0.2655,-0.264,-0.2602,-0.2596,-0.2622,-0.2618,-0.2568,-0.2563,-0.2559,-0.2515,-0.2528,-0.2527,-0.2527,-0.2543,-0.2544,-0.2545,0,0,0,0,0,0,-0.2699,-0.2695,-0.2664,-0.2682,-0.2679,-0.2662,-0.2645,-0.264,-0.26,-0.2605,-0.2596,-0.258,-0.2567,-0.2561,-0.2551,-0.2514,-0.2527,-0.2526,-0.2541,-0.2543,-0.2545,-0.2474,0,0,0,0,0,0,-0.27,-0.2694,-0.2666,-0.2681,-0.2678,-0.2677,-0.2647,-0.2642,-0.2609,-0.2602,-0.2567,-0.2561,-0.2565,-0.2553,-0.2549,-0.2513,-0.2525,-0.254,-0.2542,-0.2544,-0.2475,-0.2473,-0.2472,0,0,0,0,0,-0.2701,-0.2678,-0.2664,-0.266,-0.2645,-0.2678,-0.2679,-0.266,-0.2608,-0.2609,-0.2587,-0.256,-0.2564,-0.2553,-0.2548,-0.251,-0.2539,-0.2541,-0.2544,-0.2476,-0.2474,-0.2472,0,0,0,0,0,0,-0.2658,-0.2672,-0.2656,-0.2629,-0.2651,-0.267,-0.2643,-0.2637,-0.2617,-0.2575,-0.2573,-0.2569,-0.2555,-0.2556,-0.2544,-0.2532,-0.2548,-0.255,-0.2497,-0.2495,-0.2494,-0.2453,-0.2524,0,0,0,0,0,-0.2643,-0.2598,-0.2657,-0.2599,-0.2625,-0.2622,-0.2618,-0.2611,-0.2607,-0.2591,-0.2574,-0.2559,-0.2572,-0.2549,-0.2568,-0.2544,-0.2558,-0.2524,-0.2522,-0.2521,-0.2491,-0.2539,-0.2538,-0.2554,-0.2554,-0.2554,0,0,-0.258,-0.2586,-0.2546,-0.2583,-0.2577,-0.2609,-0.2612,-0.2591,-0.2592,-0.2587,-0.2547,-0.2554,-0.2575,-0.2567,-0.2557,-0.2548,-0.2522,-0.2524,-0.2521,-0.2492,-0.2542,-0.254,-0.2538,-0.2556,-0.2556,-0.2555,0,0,-0.2488,-0.2469,-0.2447,-0.2479,-0.2501,-0.2534,-0.2527,-0.2551,-0.2543,-0.254,-0.2539,-0.2528,-0.2526,-0.2538,-0.2545,-0.2547,-0.253,-0.254,-0.2464,-0.2512,-0.251,-0.2508,-0.2504,-0.2503,-0.2516,-0.2516,-0.2516,0,-0.2438,-0.2413,-0.2442,-0.2464,-0.247,-0.2501,-0.2514,-0.2532,-0.2535,-0.2528,-0.2517,-0.251,-0.2519,-0.2514,-0.2507,-0.2535,-0.2539,-0.246,-0.2505,-0.2504,-0.2504,-0.25,-0.2499,-0.2513,-0.2514,-0.2514,-0.2514,0,-0.2384,-0.2356,-0.234,-0.2375,-0.2399,-0.2394,-0.2466,-0.2472,-0.2458,-0.2467,-0.2453,-0.2472,-0.2466,-0.2467,-0.2473,-0.2462,-0.2459,-0.2513,-0.2497,-0.2497,-0.2494,-0.2494,-0.2509,-0.251,-0.2511,-0.2512,0,0,-0.2327,-0.2315,-0.231,-0.23,-0.2353,-0.2371,-0.2391,-0.2444,-0.2446,-0.2425,-0.2422,-0.241,-0.2388,-0.2397,-0.2403,-0.2403,-0.2399,-0.2421,-0.2425,-0.2389,-0.2451,-0.2288,-0.2273,-0.2451,-0.2452,-0.2452,-0.2442,0,-0.2293,-0.2283,-0.2304,-0.2273,-0.2285,-0.233,-0.2358,-0.2382,-0.2414,-0.2431,-0.2415,-0.2421,-0.2377,-0.2369,-0.2357,-0.2427,-0.2398,-0.2393,-0.2478,-0.2479,-0.2314,-0.2269,-0.2092,-0.2053,-0.2442,-0.2442,-0.2443,0,-0.2286,-0.2273,-0.2246,-0.223,-0.2248,-0.2244,-0.2295,-0.2322,-0.2372,-0.2392,-0.2365,-0.2384,-0.2365,-0.236,-0.2374,-0.2367,-0.2372,-0.2399,-0.2402,-0.2266,-0.2316,-0.2125,-0.204,-0.2443,-0.2443,-0.2443,-0.2443,0,-0.2247,-0.2241,-0.22,-0.2195,-0.221,-0.2203,-0.2219,-0.2276,-0.2311,-0.2359,-0.2392,-0.2372,-0.2393,-0.2391,-0.2396,-0.2402,-0.242,-0.2477,-0.2314,-0.2303,-0.2174,-0.2149,-0.2464,-0.2464,-0.2464,-0.2464,-0.2464,0,-0.2223,-0.2187,-0.2167,-0.2137,-0.2112,-0.2139,-0.2135,-0.2184,-0.225,-0.2282,-0.2338,-0.2355,-0.2405,-0.2421,-0.2404,-0.2323,-0.2431,-0.2259,-0.228,-0.2142,-0.2116,-0.2485,-0.2488,-0.2463,-0.2463,-0.2464,-0.2464,0,-0.2165,-0.2149,-0.2099,-0.2082,-0.2075,-0.2046,-0.2067,-0.2099,-0.2177,-0.224,-0.2256,-0.2356,-0.2373,-0.239,-0.2424,-0.2336,-0.2301,-0.2243,-0.2032,-0.2024,-0.2147,-0.2147,-0.207,-0.2064,-0.2059,-0.2054,-0.2051,0,-0.2127,-0.2092,-0.2038,-0.1999,-0.1972,-0.1945,-0.1955,-0.2032,-0.21,-0.2214,-0.2262,-0.2305,-0.2287,-0.2239,-0.2137,-0.2049,-0.2178,-0.1821,-0.1789,-0.2072,-0.2103,-0.2111,-0.2118,-0.1604,-0.1597,-0.1592,-0.1587,0,-0.2063,-0.2035,-0.1995,-0.1917,-0.1886,-0.1873,-0.1902,-0.1955,-0.208,-0.2118,-0.2166,-0.2138,-0.2088,-0.1904,-0.1787,-0.1707,-0.1819,-0.1696,-0.2087,-0.1708,-0.1626,-0.1659,-0.1683,-0.1536,-0.1541,-0.1545,-0.1548,-0.155,-0.2014,-0.1973,-0.1917,-0.1837,-0.1805,-0.1807,-0.1776,-0.1862,-0.19,-0.1956,-0.2004,-0.1896,-0.1809,-0.1528,-0.1406,-0.1316,-0.1448,-0.1378,-0.14,-0.1428,-0.1352,-0.1263,-0.1089,-0.1091,-0.1093,-0.1095,-0.1097,0,-0.195,-0.1914,-0.1846,-0.1769,-0.1707,-0.1708,-0.1751,-0.1694,-0.1687,-0.177,-0.1721,-0.1441,-0.1261,-0.1228,-0.0993,-0.0881,-0.091,-0.0848,-0.0926,-0.0973,-0.1016,-0.0926,-0.0547,-0.0546,-0.0545,-0.0544,0,0,-0.1912,-0.1833,-0.1794,-0.1675,-0.1622,-0.1528,-0.1511,-0.1434,-0.144,-0.1351,-0.1304,-0.1299,-0.1235,-0.0947,-0.0813,-0.0688,-0.0851,-0.0628,-0.1063,-0.1212,-0.1255,-0.1297,-0.1205,0,0,0,0,0]},{"header":{"parameterUnit":"m.s-1","parameterCategory":2,"la1":30.2991,"la2":30.254,"lo1":-89.0895,"lo2":-89.0444,"dy":0.0017,"dx":0.0017,"nx":28,"ny":28,"refTime":"2023-06-19T21:00:00:Z","depth":"2","parameterNumber":3,"parameterNumberName":"V-component_of_CURRENTS"},"data":[0,0,0,0,0,0,0,0,0,0,0,0,0,0,0,0,0,0,0,0,0,0,0,0,0,0,0,0,0,0,0,0,0,0,0,0,0,0,0,0,0,0,0,0,0,0,0,0,0,0,0,0,0,0,0,0,0,0,0.0081,0.0082,0,0.0142,0.0143,0.0143,0.0096,0.0094,0.0092,0.009,0.0152,0.0155,0.0159,0,0,0,0,0,0,0,0,0,0,0,0,0,0.0102,0.0101,0.0081,0.0082,0.0082,0.0142,0.0143,0.0143,0.0096,0.0094,0.0091,0.0089,0.015,0.0155,0.0159,0,0,0,0,0,0,0,0,0,0,0,0,0,0.0121,0.0101,0.0081,0.0066,0.0065,0.0142,0.0143,0.0144,0.0097,0.0094,0.0091,0.0088,0.0149,0.0154,0.016,0.0255,0,0,0.0176,0.0178,0,0,0,0,0,0,0,0,0.012,0.012,0.0067,0.0067,0.0066,0.0108,0.0173,0.0181,0.0098,0.0085,0.009,0.0086,0.0139,0.0145,0.0164,0.0258,0.026,0.0176,0.018,0.0182,0.0183,0,0,0,0,0,0,0,0.0118,0.0118,0.0105,0.0068,0.0068,0.0117,0.0115,0.0175,0.0129,0.0086,0.0083,0.009,0.0138,0.0159,0.0165,0.0261,0.0176,0.0181,0.0184,0.0186,0.0379,0.0381,0,0,0,0,0,0,0.0104,0.0116,0.0103,0.0107,0.0085,0.0118,0.0116,0.0098,0.0128,0.013,0.0092,0.0087,0.0151,0.0159,0.0167,0.0188,0.0182,0.0187,0.019,0.0377,0.0379,0.0381,0,0,0,0,0,0,0.0104,0.0101,0.0101,0.0115,0.0118,0.012,0.0101,0.0101,0.0087,0.0133,0.0134,0.0075,0.0149,0.016,0.0198,0.0193,0.0189,0.0194,0.0375,0.0378,0.038,0.0291,0,0,0,0,0,0,0.0104,0.01,0.0078,0.0112,0.0116,0.0123,0.0104,0.0104,0.0099,0.0092,0.012,0.0124,0.0148,0.0189,0.0203,0.0201,0.0198,0.0372,0.0376,0.038,0.0291,0.029,0.0289,0,0,0,0,0,0.0104,0.0083,0.0075,0.0074,0.0085,0.0124,0.013,0.0124,0.01,0.0099,0.0117,0.0121,0.0222,0.0195,0.0211,0.0209,0.0371,0.0375,0.0379,0.0292,0.029,0.0289,0,0,0,0,0,0,0.0074,0.0078,0.0069,0.0046,0.0073,0.0114,0.0107,0.0115,0.0132,0.0108,0.0146,0.0154,0.0191,0.0229,0.0199,0.0283,0.0299,0.0306,0.0227,0.0226,0.0225,0.0163,0.0203,0,0,0,0,0,0.0061,0.0023,0.0068,0.0033,0.0052,0.0079,0.0089,0.0088,0.0113,0.0114,0.0134,0.0173,0.0234,0.0245,0.0302,0.0346,0.04,0.0362,0.036,0.0358,0.0324,0.0457,0.0464,0.0396,0.0395,0.0395,0,0,0.0025,0.0026,-0.0003,0.0022,0.0035,0.0053,0.0074,0.0076,0.0084,0.0124,0.0122,0.0172,0.0251,0.0292,0.0313,0.031,0.0405,0.0364,0.0361,0.0327,0.0462,0.0468,0.0474,0.0398,0.0398,0.0397,0,0,-0.0038,-0.0048,-0.0079,-0.0051,-0.0025,0.0006,0.0003,0.0041,0.005,0.0078,0.0116,0.0159,0.0227,0.0281,0.0323,0.0362,0.0405,0.0381,0.0306,0.0436,0.0442,0.0447,0.0502,0.0514,0.0367,0.0367,0.0367,0,-0.0067,-0.0108,-0.0078,-0.0074,-0.0067,-0.0021,-0.0024,0.0016,0.0051,0.0064,0.0056,0.017,0.0226,0.0304,0.0295,0.0354,0.0406,0.0293,0.043,0.0437,0.0444,0.05,0.0514,0.0363,0.0363,0.0364,0.0364,0,-0.0126,-0.0157,-0.0168,-0.0163,-0.0139,-0.0142,-0.0071,-0.0049,-0.0038,-0.0012,0.0047,0.0132,0.019,0.023,0.0257,0.0338,0.035,0.0421,0.0417,0.0445,0.0503,0.0518,0.0357,0.0359,0.036,0.0361,0,0,-0.0179,-0.0207,-0.0211,-0.0228,-0.0188,-0.0172,-0.0139,-0.0089,-0.0084,-0.0038,-0.0012,0.0077,0.0095,0.0146,0.0216,0.0297,0.0384,0.0342,0.0351,0.0364,0.0612,0.0593,0.0609,0.0477,0.0479,0.0482,0.0622,0,-0.0228,-0.027,-0.0259,-0.0297,-0.0303,-0.0243,-0.0217,-0.0171,-0.0133,-0.0089,0.0012,0.0056,0.0081,0.0102,0.019,0.0357,0.0423,0.0334,0.0609,0.0616,0.0573,0.0627,0.0594,0.0715,0.0638,0.064,0.0642,0,-0.0261,-0.0294,-0.0343,-0.0366,-0.0358,-0.0362,-0.0319,-0.0294,-0.0204,-0.0168,-0.0113,-0.0045,0.0068,0.0105,0.0348,0.0285,0.041,0.0527,0.0539,0.0555,0.0627,0.0686,0.0747,0.0669,0.0667,0.0665,0.0663,0,-0.0297,-0.034,-0.0397,-0.0402,-0.0405,-0.0404,-0.0398,-0.0337,-0.0307,-0.0226,-0.0203,-0.0068,0.0033,0.0204,0.0392,0.0384,0.0665,0.0721,0.0812,0.0811,0.0851,0.0848,0.0885,0.0885,0.0885,0.0885,0.0884,0,-0.0328,-0.0368,-0.0425,-0.0451,-0.0496,-0.0474,-0.0495,-0.0451,-0.0385,-0.0332,-0.0268,-0.0165,0.0066,0.0241,0.0396,0.0634,0.0685,0.0786,0.0859,0.0817,0.081,0.0828,0.082,0.089,0.0889,0.0888,0.0887,0,-0.0339,-0.0384,-0.0452,-0.0502,-0.0518,-0.0548,-0.0556,-0.0557,-0.0498,-0.0408,-0.0382,-0.0196,0.0022,0.0206,0.0528,0.0659,0.0879,0.0945,0.0825,0.088,0.0925,0.0911,0.1073,0.1074,0.1075,0.1075,0.1076,0,-0.0341,-0.0387,-0.0497,-0.0547,-0.0576,-0.062,-0.0641,-0.0606,-0.0572,-0.0397,-0.0327,-0.0141,0.0034,0.0407,0.0655,0.0894,0.0903,0.1009,0.0998,0.0896,0.0951,0.0936,0.0921,0.1015,0.1015,0.1015,0.1015,0,-0.0342,-0.04,-0.0463,-0.0579,-0.0638,-0.0692,-0.0698,-0.0665,-0.0561,-0.0483,-0.0281,-0.0145,0.019,0.0474,0.0741,0.0882,0.0958,0.1015,0.1018,0.0951,0.0849,0.0899,0.0886,0.1014,0.1014,0.1014,0.1014,0.1014,-0.0338,-0.0387,-0.049,-0.0584,-0.0675,-0.0712,-0.0728,-0.0677,-0.0601,-0.0395,-0.0232,0.002,0.0278,0.0677,0.0807,0.0933,0.0994,0.1059,0.1058,0.1057,0.1004,0.0907,0.1069,0.107,0.107,0.107,0.1071,0,-0.0301,-0.0369,-0.0476,-0.0589,-0.0686,-0.0741,-0.0729,-0.0697,-0.0588,-0.0328,-0.015,0.0145,0.0437,0.0647,0.0873,0.1004,0.0966,0.0978,0.0936,0.0939,0.0941,0.0879,0.0914,0.0912,0.0911,0.0911,0,0,-0.0285,-0.0351,-0.0412,-0.0549,-0.0655,-0.0745,-0.0744,-0.067,-0.0492,-0.0262,-0.0024,0.0281,0.0567,0.0678,0.0794,0.0873,0.0853,0.084,0.0971,0.0913,0.0912,0.1012,0.0924,0,0,0,0,0]}],[{"header":{"parameterUnit":"m.s-1","parameterCategory":2,"la1":30.2991,"la2":30.254,"lo1":-89.0895,"lo2":-89.0444,"dy":0.0017,"dx":0.0017,"nx":28,"ny":28,"refTime":"2023-06-19T21:00:00:Z","depth":"4","parameterNumber":2,"parameterNumberName":"U-component_of_CURRENTS"},"data":[0,0,0,0,0,0,0,0,0,0,0,0,0,0,0,0,0,0,0,0,0,0,0,0,0,0,0,0,0,0,0,0,0,0,0,0,0,0,0,0,0,0,0,0,0,0,0,0,0,0,0,0,0,0,0,0,0,0,-0.1141,-0.114,0,-0.118,-0.1181,-0.1183,-0.1287,-0.1288,-0.1289,-0.129,-0.1411,-0.1413,-0.1415,0,0,0,0,0,0,0,0,0,0,0,0,0,-0.1166,-0.1166,-0.1141,-0.114,-0.1139,-0.1179,-0.1181,-0.1183,-0.1287,-0.1288,-0.129,-0.1291,-0.141,-0.1413,-0.1416,0,0,0,0,0,0,0,0,0,0,0,0,0,-0.1188,-0.1166,-0.1141,-0.1186,-0.1189,-0.1179,-0.1181,-0.1184,-0.1287,-0.1288,-0.129,-0.1291,-0.1409,-0.1413,-0.1416,-0.1408,0,0,-0.1427,-0.1428,0,0,0,0,0,0,0,0,-0.1186,-0.1189,-0.118,-0.1183,-0.1186,-0.1218,-0.1233,-0.1258,-0.1287,-0.1265,-0.129,-0.1292,-0.1344,-0.1353,-0.1375,-0.1414,-0.1419,-0.1427,-0.1429,-0.143,-0.1431,0,0,0,0,0,0,0,-0.1185,-0.1187,-0.1171,-0.1179,-0.1182,-0.1205,-0.1212,-0.1239,-0.1308,-0.1267,-0.1271,-0.1252,-0.1348,-0.1372,-0.1379,-0.1421,-0.1427,-0.143,-0.1432,-0.1433,-0.1581,-0.1583,0,0,0,0,0,0,-0.115,-0.1186,-0.1169,-0.117,-0.1174,-0.1203,-0.1211,-0.1218,-0.1306,-0.1316,-0.1251,-0.1257,-0.1365,-0.1375,-0.1384,-0.1492,-0.143,-0.1434,-0.1436,-0.1579,-0.1581,-0.1583,0,0,0,0,0,0,-0.1151,-0.1149,-0.1167,-0.1166,-0.1169,-0.1199,-0.1207,-0.1217,-0.1273,-0.129,-0.1306,-0.1298,-0.1367,-0.1379,-0.1452,-0.1493,-0.1435,-0.1438,-0.1577,-0.158,-0.1582,-0.1637,0,0,0,0,0,0,-0.1152,-0.115,-0.1162,-0.1165,-0.1167,-0.1202,-0.1205,-0.1217,-0.125,-0.126,-0.1334,-0.1345,-0.1369,-0.1447,-0.1455,-0.1497,-0.1441,-0.1574,-0.1578,-0.1581,-0.1633,-0.1641,-0.1648,0,0,0,0,0,-0.1153,-0.1166,-0.1163,-0.116,-0.1177,-0.1202,-0.121,-0.1244,-0.1251,-0.1297,-0.1342,-0.1345,-0.1474,-0.1451,-0.1461,-0.1504,-0.1573,-0.1577,-0.1581,-0.1629,-0.1639,-0.1648,0,0,0,0,0,0,-0.1185,-0.1176,-0.1174,-0.1184,-0.1203,-0.1216,-0.1239,-0.1256,-0.1326,-0.1338,-0.1369,-0.1384,-0.1449,-0.1473,-0.1446,-0.1557,-0.1523,-0.153,-0.1557,-0.1567,-0.1574,-0.1591,-0.1444,0,0,0,0,0,-0.1187,-0.1201,-0.1196,-0.1208,-0.1211,-0.1228,-0.1243,-0.1269,-0.1307,-0.1342,-0.1388,-0.1435,-0.1467,-0.1517,-0.1541,-0.1616,-0.1586,-0.165,-0.1658,-0.1665,-0.1685,-0.1668,-0.1675,-0.1597,-0.1597,-0.1597,0,0,-0.1197,-0.1192,-0.1199,-0.1215,-0.1226,-0.1246,-0.1249,-0.1281,-0.1311,-0.1339,-0.1419,-0.145,-0.1483,-0.1557,-0.1592,-0.1596,-0.1666,-0.167,-0.1675,-0.1693,-0.1673,-0.168,-0.1687,-0.16,-0.1599,-0.1599,0,0,-0.1206,-0.1222,-0.1229,-0.1242,-0.1252,-0.1278,-0.1291,-0.1327,-0.1365,-0.1424,-0.1445,-0.1498,-0.1575,-0.161,-0.163,-0.1694,-0.1681,-0.173,-0.1819,-0.1801,-0.1807,-0.1812,-0.1752,-0.1752,-0.1766,-0.1766,-0.1766,0,-0.1214,-0.122,-0.124,-0.1241,-0.1247,-0.1293,-0.1306,-0.135,-0.1416,-0.1444,-0.1458,-0.1558,-0.1581,-0.1659,-0.1712,-0.1707,-0.1707,-0.1777,-0.181,-0.1814,-0.1818,-0.1756,-0.1754,-0.1769,-0.1769,-0.1768,-0.1768,0,-0.1206,-0.1225,-0.1231,-0.1254,-0.1282,-0.1307,-0.1343,-0.1384,-0.1427,-0.1482,-0.1561,-0.1609,-0.1675,-0.1701,-0.1742,-0.1816,-0.1804,-0.179,-0.178,-0.1829,-0.176,-0.1757,-0.1774,-0.1773,-0.1772,-0.1771,0,0,-0.1191,-0.1219,-0.1227,-0.1233,-0.1287,-0.1308,-0.1348,-0.1409,-0.1436,-0.1535,-0.1574,-0.1681,-0.1746,-0.1776,-0.1832,-0.1874,-0.1887,-0.19,-0.1898,-0.183,-0.1854,-0.1758,-0.1745,-0.1913,-0.1914,-0.1914,-0.1781,0,-0.1182,-0.1183,-0.1216,-0.1253,-0.1256,-0.1298,-0.135,-0.1414,-0.1465,-0.1526,-0.1604,-0.1695,-0.1767,-0.1829,-0.1875,-0.1871,-0.1893,-0.1924,-0.1827,-0.1823,-0.1723,-0.1743,-0.1917,-0.1779,-0.1778,-0.1778,-0.1777,0,-0.1163,-0.1163,-0.1178,-0.1236,-0.1247,-0.1302,-0.1352,-0.1408,-0.1498,-0.1526,-0.1626,-0.1716,-0.1819,-0.185,-0.1884,-0.1924,-0.1917,-0.1908,-0.1901,-0.1799,-0.1724,-0.1729,-0.1772,-0.1772,-0.1773,-0.1773,-0.1773,0,-0.1118,-0.1154,-0.1168,-0.1176,-0.1244,-0.1271,-0.1348,-0.143,-0.1438,-0.1565,-0.159,-0.172,-0.1757,-0.1806,-0.1846,-0.1883,-0.1832,-0.1829,-0.172,-0.171,-0.1809,-0.1806,-0.1834,-0.1834,-0.1835,-0.1835,-0.1835,0,-0.1083,-0.1099,-0.1155,-0.115,-0.1186,-0.1274,-0.1307,-0.1376,-0.1431,-0.1466,-0.1644,-0.1658,-0.1767,-0.1777,-0.1813,-0.1748,-0.1784,-0.1732,-0.1681,-0.1831,-0.1832,-0.1804,-0.1802,-0.183,-0.1831,-0.1832,-0.1833,0,-0.1031,-0.106,-0.1072,-0.114,-0.1158,-0.1204,-0.1247,-0.1256,-0.1371,-0.1387,-0.1451,-0.1567,-0.1614,-0.1679,-0.168,-0.1654,-0.1627,-0.1597,-0.1726,-0.1682,-0.1518,-0.1521,-0.1434,-0.143,-0.1426,-0.1423,-0.142,0,-0.1,-0.0998,-0.1041,-0.1027,-0.1063,-0.1099,-0.1109,-0.1199,-0.1209,-0.1323,-0.1341,-0.1425,-0.1506,-0.1408,-0.1487,-0.1485,-0.1505,-0.1456,-0.1546,-0.1524,-0.1483,-0.1491,-0.1499,-0.1415,-0.1414,-0.1413,-0.1412,0,-0.0932,-0.0967,-0.0965,-0.0949,-0.0956,-0.0934,-0.0994,-0.0964,-0.1088,-0.1153,-0.1212,-0.1272,-0.128,-0.1315,-0.1323,-0.1338,-0.1474,-0.1419,-0.1427,-0.1512,-0.15,-0.1464,-0.1476,-0.1399,-0.1401,-0.1402,-0.1403,0,-0.0888,-0.088,-0.089,-0.0867,-0.0855,-0.0848,-0.0856,-0.0889,-0.0905,-0.1071,-0.1041,-0.1174,-0.1226,-0.1232,-0.124,-0.1249,-0.1255,-0.1242,-0.126,-0.1275,-0.1299,-0.1265,-0.1045,0,0,0,0,0,-0.0838,-0.0823,-0.0798,-0.0781,-0.0768,-0.078,-0.0813,-0.0833,-0.0918,-0.0928,-0.0991,-0.1032,-0.1072,-0.1113,-0.1096,-0.1175,-0.1259,-0.115,-0.1253,-0.133,-0.1345,-0.1397,0,0,0,0,0,0,-0.08,-0.0791,-0.0783,-0.072,-0.0691,-0.0691,-0.0718,-0.0772,-0.0795,-0.0883,-0.0909,-0.0967,-0.1019,-0.1068,-0.1074,-0.1086,-0.1132,-0.1198,-0.1195,-0.1322,-0.1335,-0.1347,-0.1405,0,0,0,0,0]},{"header":{"parameterUnit":"m.s-1","parameterCategory":2,"la1":30.2991,"la2":30.254,"lo1":-89.0895,"lo2":-89.0444,"dy":0.0017,"dx":0.0017,"nx":28,"ny":28,"refTime":"2023-06-19T21:00:00:Z","depth":"4","parameterNumber":3,"parameterNumberName":"V-component_of_CURRENTS"},"data":[0,0,0,0,0,0,0,0,0,0,0,0,0,0,0,0,0,0,0,0,0,0,0,0,0,0,0,0,0,0,0,0,0,0,0,0,0,0,0,0,0,0,0,0,0,0,0,0,0,0,0,0,0,0,0,0,0,0,-0.0146,-0.0146,0,-0.0161,-0.0161,-0.0161,-0.0101,-0.0099,-0.0098,-0.0097,-0.0079,-0.0079,-0.008,0,0,0,0,0,0,0,0,0,0,0,0,0,-0.0082,-0.0083,-0.0146,-0.0146,-0.0147,-0.0161,-0.0161,-0.0161,-0.0101,-0.0099,-0.0098,-0.0096,-0.0078,-0.0079,-0.008,0,0,0,0,0,0,0,0,0,0,0,0,0,-0.01,-0.0083,-0.0146,-0.0122,-0.0121,-0.0161,-0.0161,-0.0161,-0.0101,-0.0099,-0.0097,-0.0095,-0.0078,-0.0079,-0.008,-0.0127,0,0,-0.0084,-0.0084,0,0,0,0,0,0,0,0,-0.0099,-0.0102,-0.0125,-0.0124,-0.0122,-0.0131,-0.0132,-0.015,-0.0102,-0.0103,-0.0097,-0.0094,-0.0098,-0.0097,-0.0098,-0.0127,-0.0126,-0.0084,-0.0085,-0.0085,-0.0085,0,0,0,0,0,0,0,-0.0098,-0.0101,-0.0147,-0.0126,-0.0125,-0.0118,-0.0117,-0.0135,-0.0107,-0.0103,-0.01,-0.011,-0.0096,-0.0097,-0.0097,-0.0125,-0.0084,-0.0085,-0.0086,-0.0086,-0.0179,-0.0181,0,0,0,0,0,0,-0.0107,-0.01,-0.0146,-0.0148,-0.0111,-0.0121,-0.012,-0.0126,-0.0108,-0.0105,-0.0112,-0.0107,-0.0096,-0.0096,-0.0096,-0.0151,-0.0085,-0.0086,-0.0087,-0.0177,-0.018,-0.0182,0,0,0,0,0,0,-0.0106,-0.0111,-0.0146,-0.0128,-0.0132,-0.0124,-0.0132,-0.0128,-0.0122,-0.0116,-0.011,-0.0109,-0.0094,-0.0095,-0.0121,-0.015,-0.0087,-0.0088,-0.0175,-0.0178,-0.0181,-0.0262,0,0,0,0,0,0,-0.0104,-0.011,-0.0118,-0.0129,-0.0134,-0.0171,-0.0134,-0.013,-0.0134,-0.0128,-0.0113,-0.0109,-0.0093,-0.0119,-0.0122,-0.015,-0.0089,-0.0173,-0.0177,-0.018,-0.0257,-0.0267,-0.0275,0,0,0,0,0,-0.0101,-0.012,-0.0118,-0.0124,-0.0145,-0.0173,-0.0175,-0.0159,-0.0136,-0.0143,-0.0138,-0.0109,-0.0142,-0.0123,-0.0125,-0.0154,-0.0171,-0.0176,-0.0179,-0.0252,-0.0265,-0.0275,0,0,0,0,0,0,-0.0097,-0.0116,-0.0114,-0.0138,-0.0157,-0.0164,-0.0173,-0.0166,-0.0168,-0.0159,-0.0139,-0.0138,-0.0181,-0.0157,-0.0136,-0.0191,-0.0149,-0.0154,-0.0204,-0.0216,-0.0225,-0.0206,-0.009,0,0,0,0,0,-0.0104,-0.0123,-0.014,-0.0164,-0.017,-0.0173,-0.0182,-0.0177,-0.0183,-0.018,-0.0178,-0.0177,-0.0204,-0.0198,-0.0221,-0.0245,-0.0192,-0.0264,-0.0273,-0.0281,-0.0268,-0.0255,-0.0261,-0.0195,-0.0195,-0.0195,0,0,-0.0113,-0.0127,-0.0138,-0.0165,-0.0173,-0.0204,-0.0171,-0.0192,-0.0223,-0.0182,-0.0219,-0.0226,-0.0225,-0.0264,-0.0277,-0.0239,-0.0264,-0.0286,-0.0293,-0.0275,-0.026,-0.0266,-0.0271,-0.0197,-0.0197,-0.0197,0,0,-0.0149,-0.0149,-0.0176,-0.0197,-0.0222,-0.0227,-0.0235,-0.0251,-0.0255,-0.0299,-0.0287,-0.0314,-0.0333,-0.0345,-0.0351,-0.0427,-0.0334,-0.0418,-0.0426,-0.0415,-0.042,-0.0423,-0.0322,-0.0316,-0.0398,-0.0398,-0.0398,0,-0.0157,-0.0194,-0.0191,-0.0229,-0.025,-0.024,-0.0278,-0.0296,-0.0323,-0.0335,-0.032,-0.037,-0.0382,-0.0423,-0.044,-0.0451,-0.0378,-0.0385,-0.0425,-0.0428,-0.043,-0.0326,-0.0318,-0.0402,-0.0402,-0.0401,-0.0401,0,-0.0216,-0.0246,-0.0265,-0.0306,-0.0329,-0.036,-0.0385,-0.0412,-0.0416,-0.0424,-0.0471,-0.0486,-0.0498,-0.0516,-0.0497,-0.0519,-0.0438,-0.0459,-0.0393,-0.0442,-0.0328,-0.0318,-0.0409,-0.0407,-0.0406,-0.0405,0,0,-0.0225,-0.0292,-0.0298,-0.033,-0.0369,-0.0395,-0.0453,-0.0492,-0.0521,-0.0541,-0.0565,-0.062,-0.059,-0.0595,-0.0578,-0.0555,-0.0513,-0.0489,-0.0486,-0.0377,-0.039,-0.0269,-0.0246,-0.0521,-0.0521,-0.0521,-0.0288,0,-0.0268,-0.0345,-0.0367,-0.0441,-0.0476,-0.0495,-0.0547,-0.0583,-0.0602,-0.0624,-0.0625,-0.0648,-0.0629,-0.0623,-0.0605,-0.0554,-0.0496,-0.0568,-0.0367,-0.036,-0.024,-0.0236,-0.0521,-0.028,-0.0278,-0.0276,-0.0275,0,-0.0311,-0.0358,-0.0433,-0.0503,-0.0518,-0.0567,-0.0627,-0.0672,-0.0701,-0.0709,-0.0711,-0.0686,-0.0665,-0.0647,-0.0544,-0.0572,-0.0475,-0.0419,-0.041,-0.0261,-0.0223,-0.0232,-0.0257,-0.0258,-0.0259,-0.0261,-0.0262,0,-0.0312,-0.0399,-0.0456,-0.0484,-0.0563,-0.0609,-0.0649,-0.0698,-0.0726,-0.0746,-0.0745,-0.0715,-0.0683,-0.0599,-0.0457,-0.0492,-0.0294,-0.035,-0.0136,-0.0122,-0.0264,-0.0263,-0.0261,-0.0262,-0.0262,-0.0263,-0.0264,0,-0.0339,-0.0389,-0.0468,-0.0505,-0.0577,-0.0625,-0.0689,-0.0736,-0.0766,-0.0773,-0.0773,-0.0738,-0.0667,-0.0539,-0.043,-0.021,-0.027,-0.0109,-0.0065,-0.0297,-0.0303,-0.0253,-0.0255,-0.0254,-0.0256,-0.0258,-0.0259,0,-0.0338,-0.0386,-0.0461,-0.0552,-0.0582,-0.0635,-0.071,-0.0748,-0.0784,-0.079,-0.0783,-0.0727,-0.0547,-0.0412,-0.0235,-0.0157,0.0013,0.0113,-0.005,-0.0024,0.0179,0.0169,0.0347,0.0353,0.0358,0.0362,0.0366,0,-0.0349,-0.0387,-0.0485,-0.0525,-0.0574,-0.0648,-0.0692,-0.0752,-0.0772,-0.076,-0.0742,-0.0584,-0.0508,-0.0143,-0.003,0.0237,0.0251,0.0337,0.0166,0.0212,0.0236,0.0218,0.0202,0.0374,0.0375,0.0377,0.0378,0,-0.0364,-0.0395,-0.0452,-0.0529,-0.0591,-0.0654,-0.0716,-0.072,-0.0754,-0.0776,-0.0652,-0.0496,-0.0263,-0.0056,0.019,0.0346,0.0254,0.0389,0.0376,0.0216,0.0246,0.0261,0.024,0.0395,0.0393,0.0391,0.039,0,-0.0361,-0.04,-0.0462,-0.0525,-0.0599,-0.0647,-0.0683,-0.0672,-0.0681,-0.0657,-0.0584,-0.0395,-0.0285,0.0013,0.0222,0.0415,0.0406,0.038,0.0367,0.0349,0.0254,0.0287,0.0512,0,0,0,0,0,-0.0342,-0.0377,-0.0449,-0.0528,-0.0601,-0.0632,-0.0689,-0.0711,-0.0715,-0.061,-0.0599,-0.037,-0.0062,0.0056,0.028,0.0283,0.0422,0.0543,0.038,0.0493,0.0472,0.0367,0,0,0,0,0,0,-0.0328,-0.0388,-0.0434,-0.0509,-0.0549,-0.0628,-0.0652,-0.0663,-0.0596,-0.057,-0.0385,-0.0329,-0.0007,-0.0156,0.029,0.0343,0.026,0.0683,0.0687,0.0504,0.0486,0.047,0.0354,0,0,0,0,0]}]]